Location: East Guldeford
(50.9500°N, 0.7500°E)
Time: 09:24:54
(UTC+00:00)

Meteor 1-5 Rocket - Pass Details

Date: 12 May 2021
Orbit: 788 x 916 km, 81.2° (Epoch: 17 June)

Event Time Altitude Azimuth Distance (km) Brightness Sun altitude
Rises 20:44:33 0° 348° (NNW) 3,358 8.4 -9.3°
Reaches altitude 10° 20:46:59 10° 350° (N) 2,406 7.5 -9.6°
Maximum altitude 20:52:24 74° 76° (ENE) 831 4.1 -10.2°
Enters shadow 20:57:26 11° 162° (SSE) 2,252 5.9 -10.7°
